Back to catalog

THORAD AGENA D DEB

AliveSSO
NORAD 14478·DEBRIS·🇺🇸 United States

Launched Apr 8, 1970 from Vandenberg Space Force Base

Loading…

Next Passes (next 24 hours)

TLE

FreshSource: Space-Track

Epoch: Sep 13, 2026, 21:26 UTC

1 14478U 70025NW  26256.89368543  .00006099  00000-0  19175-1 0  9993
2 14478 100.9035  63.0075 0495293 226.0040 129.9200 12.69138198620369

Track THORAD AGENA D DEB in real time with AllMySat

Download on the App Store